Location: Azul
(36.7830°S, 59.8500°W)
Time: 12:30:19
(UTC-03:00)

ISS - Pass Details

Date: 18 February 2018
Orbit: 403 x 406 km, 51.6° (Epoch: 26 February)

Event Time Altitude Azimuth Distance (km) Brightness Sun altitude
Exits shadow 05:38:02 - 233° (SW) 2,197 -0.4 -11.3°
Reaches altitude 10° 05:39:45 10° 236° (WSW) 1,492 -1.3 -11.0°
Maximum altitude 05:43:03 58° 316° (NW) 486 -3.8 -10.4°
Drops below altitude 10° 05:46:19 10° 36° (NE) 1,473 -0.8 -9.8°
Sets 05:48:24 0° 40° (NE) 2,326 0.3 -9.4°
